Regional Weather Roundup
Issued by NWS

Home | Current Version | Previous Version | Graphics & Text | Print | Product List | Glossary On
Versions: 1 2 3 4 5 6 7 8 9 10 11 12 13 14 15 16 17 18 19 20 21 22 23 24 25 26 27 28 29 30 31 32 33 34 35 36 37 38 39 40 41 42 43 44 45 46 47 48 49 50
080
ASUS44 KJAN 271703
RWRMS

MISSISSIPPI HOURLY WEATHER ROUNDUP
NATIONAL WEATHER SERVICE JACKSON MS
1100 AM CST THU NOV 27 2014

NOTE: "FAIR: INDICATES FEW OR NO CLOUDS BELOW 12,000 FEET WITH NO
SIGNIFICANT WEATHER AND/OR OBSTRUCTIONS TO VISIBILITY.

MSZ001>002-007>008-010>013-018>021-025>028-034>036-271800-
NORTHWEST MISSISSIPPI

CITY           SKY/WX    TMP DP  RH WIND       PRES   REMARKS
CLARKSDALE     CLOUDY    41  32  70 NW10      30.54S
CLEVELAND      CLOUDY    41  32  69 N10G17    30.54R
GREENWOOD      PTSUNNY   46  29  51 N15G21    30.51S
GREENVILLE     CLOUDY    42  29  59 N13       30.55R
GRENADA        CLOUDY    43  30  61 N8        30.51S
OLIVE BRANCH   PTSUNNY   39  32  75 MISG      30.50R
OXFORD         CLOUDY    39  27  60 N8G16     30.50F WCI  34
TUNICA         CLOUDY    43  32  65 N13       30.53S
$$

MSZ003>006-009-014>017-022>024-029>033-037>039-271800-
NORTHEAST MISSISSIPPI

CITY           SKY/WX    TMP DP  RH WIND       PRES   REMARKS
COLUMBUS AFB   CLOUDY    42  29  60 NW12      30.47F
CORINTH        CLOUDY    43  30  61 N10       30.45F
GOLDN TRIANGLE PTSUNNY   46  30  53 N14       30.46F
STARKVILLE     CLOUDY    43  32  65 N9        30.47F
TUPELO         CLOUDY    41  29  62 MISG      30.48R
$$

MSZ040-058-271800-
CENTRAL MISSISSIPPI

CITY           SKY/WX    TMP DP  RH WIND       PRES   REMARKS
JACKSON INTL   SUNNY     48  28  46 NW9       30.48F
JACKSON HAWKNS SUNNY     48  29  47 VRB7      30.48F
MERIDIAN KEY   SUNNY     49  28  44 N14       30.45S
MERIDIAN NAS   SUNNY     48  29  47 N10G20    30.45F
RAYMOND        FAIR      46  43  87 NW12      30.50S
VICKSBURG      SUNNY     48  30  49 N9G20     30.53S
$$

MSZ059>079-271800-
SOUTH MISSISSIPPI

CITY           SKY/WX    TMP DP  RH WIND       PRES   REMARKS
BROOKHAVEN     FAIR      48  32  53 NW9       30.48F
HATTIESBURG    SUNNY     52  31  44 N10       30.45F
MCCOMB         SUNNY     52  29  41 N12       30.45F
NATCHEZ        SUNNY     48  30  49 N13G18    30.50F
PINE BELT      SUNNY     52  28  40 N12       30.46F
$$

MSZ080>082-271800-
COASTAL MISSISSIPPI

CITY           SKY/WX    TMP DP  RH WIND       PRES   REMARKS
BAY ST LOUIS   SUNNY     55  27  33 N12G17    30.42F
BILOXI         SUNNY     56  33  41 VRB3      30.41F
PASCAGOULA     SUNNY     57  32  38 N15       30.40F
GULFPORT       SUNNY     57  33  40 N12G20    30.41F
$$



USA.gov is the U.S. government's official web portal to all federal, state and local government web resources and services.